Time,TemperatureF,DewpointF,PressureIn,WindDirection,WindDirectionDegrees,WindSpeedMPH,WindSpeedGustMPH,Humidity,HourlyPrecipIn,Conditions,Clouds,dailyrainin,SolarRadiationWatts/m^2,SoftwareType,DateUTC
2013-02-11 00:02:00,49.0,47.0,-100.00,SE,139,7.0,18.0,94,0.01,,,0.79,0.000000,,2013-02-11 05:02:00,
2013-02-11 00:32:00,48.0,47.0,-100.00,SE,129,9.0,22.0,97,0.00,,,0.79,0.000000,,2013-02-11 05:32:00,
2013-02-11 00:42:00,48.0,47.0,-100.00,SE,129,9.0,22.0,97,0.00,,,0.79,0.000000,,2013-02-11 05:42:00,
2013-02-11 00:53:00,48.0,47.0,-100.00,SE,129,9.0,22.0,97,0.00,,,0.79,0.000000,,2013-02-11 05:53:00,
2013-02-11 01:02:00,48.0,47.0,-100.00,SE,129,9.0,22.0,97,0.00,,,0.79,0.000000,,2013-02-11 06:02:00,
2013-02-11 01:32:00,49.0,48.0,-100.00,SE,139,5.0,17.0,97,0.04,,,0.83,0.000000,,2013-02-11 06:32:00,
2013-02-11 01:42:00,49.0,48.0,-100.00,SE,139,5.0,17.0,97,0.04,,,0.83,0.000000,,2013-02-11 06:42:00,
2013-02-11 01:52:00,49.0,48.0,-100.00,SE,139,5.0,17.0,97,0.04,,,0.83,0.000000,,2013-02-11 06:52:00,
2013-02-11 02:02:00,49.0,48.0,-100.00,SE,139,5.0,17.0,97,0.04,,,0.83,0.000000,,2013-02-11 07:02:00,
2013-02-11 02:32:00,49.0,48.0,-100.00,SSE,155,6.0,17.0,96,0.08,,,0.91,0.000000,,2013-02-11 07:32:00,
2013-02-11 02:42:00,49.0,48.0,-100.00,SSE,155,6.0,17.0,96,0.08,,,0.91,0.000000,,2013-02-11 07:42:00,
2013-02-11 02:52:00,49.0,48.0,-100.00,SSE,155,6.0,17.0,96,0.08,,,0.91,0.000000,,2013-02-11 07:52:00,
2013-02-11 03:01:00,49.0,48.0,-100.00,SSE,155,6.0,17.0,96,0.08,,,0.91,0.000000,,2013-02-11 08:01:00,
2013-02-11 03:32:00,50.0,49.0,-100.00,SE,138,6.0,13.0,96,0.00,,,0.91,0.000000,,2013-02-11 08:32:00,
2013-02-11 03:42:00,50.0,49.0,-100.00,SE,138,6.0,13.0,96,0.00,,,0.91,0.000000,,2013-02-11 08:42:00,
2013-02-11 03:52:00,50.0,49.0,-100.00,SE,138,6.0,13.0,96,0.00,,,0.91,0.000000,,2013-02-11 08:52:00,
2013-02-11 04:02:00,50.0,49.0,-100.00,SE,138,6.0,13.0,96,0.00,,,0.91,0.000000,,2013-02-11 09:02:00,
2013-02-11 04:32:00,49.0,48.0,-100.00,SSE,161,5.0,12.0,98,0.05,,,0.96,0.000000,,2013-02-11 09:32:00,
2013-02-11 04:42:00,49.0,48.0,-100.00,SSE,161,5.0,12.0,98,0.05,,,0.96,0.000000,,2013-02-11 09:42:00,
2013-02-11 04:52:00,49.0,48.0,-100.00,SSE,161,5.0,12.0,98,0.05,,,0.96,0.000000,,2013-02-11 09:52:00,
2013-02-11 05:02:00,49.0,48.0,-100.00,SSE,161,5.0,12.0,98,0.05,,,0.96,0.000000,,2013-02-11 10:02:00,
2013-02-11 05:32:00,49.0,48.0,-100.00,ESE,119,3.0,7.0,96,0.09,,,1.05,0.000000,,2013-02-11 10:32:00,
2013-02-11 05:42:00,49.0,48.0,-100.00,ESE,119,3.0,7.0,96,0.09,,,1.05,0.000000,,2013-02-11 10:42:00,
2013-02-11 05:52:00,49.0,48.0,-100.00,ESE,119,3.0,7.0,96,0.09,,,1.05,0.000000,,2013-02-11 10:52:00,
2013-02-11 06:02:00,49.0,48.0,-100.00,ESE,119,3.0,7.0,96,0.09,,,1.05,0.000000,,2013-02-11 11:02:00,
2013-02-11 06:32:00,50.0,49.0,-100.00,South,178,5.0,9.0,98,0.02,,,1.07,0.000000,,2013-02-11 11:32:00,
2013-02-11 06:42:00,50.0,49.0,-100.00,South,178,5.0,9.0,98,0.02,,,1.07,0.000000,,2013-02-11 11:42:00,
2013-02-11 06:52:00,50.0,49.0,-100.00,South,178,5.0,9.0,98,0.02,,,1.07,0.000000,,2013-02-11 11:52:00,
2013-02-11 07:03:00,50.0,49.0,-100.00,South,178,5.0,9.0,98,0.02,,,1.07,0.000000,,2013-02-11 12:03:00,
2013-02-11 07:32:00,49.0,48.0,-100.00,SE,129,2.0,5.0,97,0.00,,,-99.99,0.000000,,2013-02-11 12:32:00,
2013-02-11 07:42:00,49.0,48.0,-100.00,SE,129,2.0,5.0,97,0.00,,,-99.99,0.000000,,2013-02-11 12:42:00,
2013-02-11 07:52:00,49.0,48.0,-100.00,SE,129,2.0,5.0,97,0.00,,,-99.99,0.000000,,2013-02-11 12:52:00,
2013-02-11 08:02:00,49.0,48.0,-100.00,SE,129,2.0,5.0,97,0.00,,,-99.99,0.000000,,2013-02-11 13:02:00,
2013-02-11 08:33:00,51.0,51.0,-100.00,SSE,154,3.0,9.0,99,0.03,,,-99.99,2.000000,,2013-02-11 13:33:00,
2013-02-11 08:42:00,51.0,51.0,-100.00,SSE,154,3.0,9.0,99,0.03,,,-99.99,2.000000,,2013-02-11 13:42:00,
2013-02-11 08:52:00,51.0,51.0,-100.00,SSE,154,3.0,9.0,99,0.03,,,-99.99,2.000000,,2013-02-11 13:52:00,
2013-02-11 09:02:00,51.0,51.0,-100.00,SSE,154,3.0,9.0,99,0.03,,,-99.99,2.000000,,2013-02-11 14:02:00,
2013-02-11 09:33:00,51.0,50.0,-100.00,NNE,15,0.0,2.0,98,0.03,,,-99.99,12.000000,,2013-02-11 14:33:00,
2013-02-11 09:42:00,51.0,50.0,-100.00,NNE,15,0.0,2.0,98,0.03,,,-99.99,12.000000,,2013-02-11 14:42:00,
2013-02-11 09:53:00,51.0,50.0,-100.00,NNE,15,0.0,2.0,98,0.03,,,-99.99,12.000000,,2013-02-11 14:53:00,
2013-02-11 10:02:00,51.0,50.0,-100.00,NNE,15,0.0,2.0,98,0.03,,,-99.99,12.000000,,2013-02-11 15:02:00,
2013-02-11 10:32:00,51.0,51.0,-100.00,SE,136,0.0,4.0,99,0.01,,,1.14,37.000000,,2013-02-11 15:32:00,
2013-02-11 10:42:00,51.0,51.0,-100.00,SE,136,0.0,4.0,99,0.01,,,1.14,37.000000,,2013-02-11 15:42:00,
2013-02-11 10:52:00,51.0,51.0,-100.00,SE,136,0.0,4.0,99,0.01,,,1.14,37.000000,,2013-02-11 15:52:00,
2013-02-11 11:02:00,51.0,51.0,-100.00,SE,136,0.0,4.0,99,0.01,,,1.14,37.000000,,2013-02-11 16:02:00,
2013-02-11 11:32:00,52.0,52.0,-100.00,SSE,160,2.0,10.0,99,0.02,,,1.16,46.000000,,2013-02-11 16:32:00,
2013-02-11 11:42:00,52.0,52.0,-100.00,SSE,160,2.0,10.0,99,0.02,,,1.16,46.000000,,2013-02-11 16:42:00,
2013-02-11 11:53:00,52.0,52.0,-100.00,SSE,160,2.0,10.0,99,0.02,,,1.16,46.000000,,2013-02-11 16:53:00,
2013-02-11 12:02:00,52.0,52.0,-100.00,SSE,160,2.0,10.0,99,0.02,,,1.16,46.000000,,2013-02-11 17:02:00,
2013-02-11 12:32:00,51.0,50.0,-100.00,SSE,162,0.0,7.0,96,0.00,,,-99.99,40.000000,,2013-02-11 17:32:00,
2013-02-11 12:42:00,51.0,50.0,-100.00,SSE,162,0.0,7.0,96,0.00,,,-99.99,40.000000,,2013-02-11 17:42:00,
2013-02-11 12:53:00,51.0,50.0,-100.00,SSE,162,0.0,7.0,96,0.00,,,-99.99,40.000000,,2013-02-11 17:53:00,
2013-02-11 13:02:00,51.0,50.0,-100.00,SSE,162,0.0,7.0,96,0.00,,,-99.99,40.000000,,2013-02-11 18:02:00,
2013-02-11 13:32:00,52.0,51.0,-100.00,South,189,2.0,5.0,96,0.00,,,1.16,107.000000,,2013-02-11 18:32:00,
2013-02-11 13:42:00,52.0,51.0,-100.00,South,189,2.0,5.0,96,0.00,,,1.16,107.000000,,2013-02-11 18:42:00,
2013-02-11 13:54:00,52.0,51.0,-100.00,South,189,2.0,5.0,96,0.00,,,1.16,107.000000,,2013-02-11 18:54:00,
2013-02-11 14:02:00,52.0,51.0,-100.00,South,189,2.0,5.0,96,0.00,,,1.16,107.000000,,2013-02-11 19:02:00,
2013-02-11 15:32:00,52.0,47.0,-100.00,NW,305,2.0,7.0,82,-99.99,,,1.16,132.000000,,2013-02-11 20:32:00,
2013-02-11 15:42:00,52.0,47.0,-100.00,NW,305,2.0,7.0,82,-99.99,,,1.16,132.000000,,2013-02-11 20:42:00,
2013-02-11 15:52:00,52.0,47.0,-100.00,NW,305,2.0,7.0,82,-99.99,,,1.16,132.000000,,2013-02-11 20:52:00,
2013-02-11 16:02:00,52.0,47.0,-100.00,NW,305,2.0,7.0,82,-99.99,,,1.16,132.000000,,2013-02-11 21:02:00,
2013-02-11 16:32:00,51.0,47.0,-100.00,NW,324,4.0,7.0,87,0.00,,,1.14,84.000000,,2013-02-11 21:32:00,
2013-02-11 16:42:00,51.0,47.0,-100.00,NW,324,4.0,7.0,87,0.00,,,1.14,84.000000,,2013-02-11 21:42:00,
2013-02-11 16:52:00,51.0,47.0,-100.00,NW,324,4.0,7.0,87,0.00,,,1.14,84.000000,,2013-02-11 21:52:00,
2013-02-11 17:02:00,51.0,47.0,-100.00,NW,324,4.0,7.0,87,0.00,,,1.14,84.000000,,2013-02-11 22:02:00,
2013-02-11 17:32:00,50.0,42.0,-100.00,WNW,291,3.0,8.0,75,0.00,,,1.04,58.000000,,2013-02-11 22:32:00,
2013-02-11 17:42:00,50.0,42.0,-100.00,WNW,291,3.0,8.0,75,0.00,,,1.04,58.000000,,2013-02-11 22:42:00,
2013-02-11 17:52:00,50.0,42.0,-100.00,WNW,291,3.0,8.0,75,0.00,,,1.04,58.000000,,2013-02-11 22:52:00,
2013-02-11 18:02:00,50.0,42.0,-100.00,WNW,291,3.0,8.0,75,0.00,,,1.04,58.000000,,2013-02-11 23:02:00,
2013-02-11 18:32:00,48.0,44.0,-100.00,NW,325,2.0,7.0,87,0.00,,,0.80,29.000000,,2013-02-11 23:32:00,
2013-02-11 18:42:00,48.0,44.0,-100.00,NW,325,2.0,7.0,87,0.00,,,0.80,29.000000,,2013-02-11 23:42:00,
2013-02-11 18:52:00,48.0,44.0,-100.00,NW,325,2.0,7.0,87,0.00,,,0.80,29.000000,,2013-02-11 23:52:00,
2013-02-11 19:02:00,48.0,44.0,-100.00,NW,325,2.0,7.0,87,0.00,,,0.80,29.000000,,2013-02-12 00:02:00,
2013-02-11 19:32:00,45.0,44.0,-100.00,NNW,331,3.0,4.0,97,0.00,,,0.64,1.000000,,2013-02-12 00:32:00,
2013-02-11 19:42:00,45.0,44.0,-100.00,NNW,331,3.0,4.0,97,0.00,,,0.64,1.000000,,2013-02-12 00:42:00,
2013-02-11 19:52:00,45.0,44.0,-100.00,NNW,331,3.0,4.0,97,0.00,,,0.64,1.000000,,2013-02-12 00:52:00,
2013-02-11 20:02:00,45.0,44.0,-100.00,NNW,331,3.0,4.0,97,0.00,,,0.64,1.000000,,2013-02-12 01:02:00,
2013-02-11 20:32:00,42.0,41.0,-100.00,NW,321,2.0,4.0,97,0.00,,,-99.99,0.000000,,2013-02-12 01:32:00,
2013-02-11 20:42:00,42.0,41.0,-100.00,NW,321,2.0,4.0,97,0.00,,,-99.99,0.000000,,2013-02-12 01:42:00,
2013-02-11 20:52:00,42.0,41.0,-100.00,NW,321,2.0,4.0,97,0.00,,,-99.99,0.000000,,2013-02-12 01:52:00,
2013-02-11 21:02:00,42.0,41.0,-100.00,NW,321,2.0,4.0,97,0.00,,,-99.99,0.000000,,2013-02-12 02:02:00,
2013-02-11 21:32:00,41.0,40.0,-100.00,ESE,114,0.0,3.0,98,0.00,,,0.44,0.000000,,2013-02-12 02:32:00,
2013-02-11 21:42:00,41.0,40.0,-100.00,ESE,114,0.0,3.0,98,0.00,,,0.44,0.000000,,2013-02-12 02:42:00,
2013-02-11 21:53:00,41.0,40.0,-100.00,ESE,114,0.0,3.0,98,0.00,,,0.44,0.000000,,2013-02-12 02:53:00,
2013-02-11 22:02:00,41.0,40.0,-100.00,ESE,114,0.0,3.0,98,0.00,,,0.44,0.000000,,2013-02-12 03:02:00,
2013-02-11 22:32:00,41.0,41.0,-100.00,SE,135,1.0,4.0,99,0.00,,,0.38,0.000000,,2013-02-12 03:32:00,
2013-02-11 22:42:00,41.0,41.0,-100.00,SE,135,1.0,4.0,99,0.00,,,0.38,0.000000,,2013-02-12 03:42:00,
2013-02-11 22:52:00,41.0,41.0,-100.00,SE,135,1.0,4.0,99,0.00,,,0.38,0.000000,,2013-02-12 03:52:00,
2013-02-11 23:01:00,41.0,41.0,-100.00,SE,135,1.0,4.0,99,0.00,,,0.38,0.000000,,2013-02-12 04:01:00,
2013-02-11 23:32:00,41.0,41.0,-100.00,West,275,1.0,4.0,99,0.00,,,0.37,0.000000,,2013-02-12 04:32:00,
2013-02-11 23:42:00,41.0,41.0,-100.00,West,275,1.0,4.0,99,0.00,,,0.37,0.000000,,2013-02-12 04:42:00,
2013-02-11 23:52:00,41.0,41.0,-100.00,West,275,1.0,4.0,99,0.00,,,0.37,0.000000,,2013-02-12 04:52:00,